N7BDR Weather Reports


Display with metric or nautical units.
time (UTC)temp
F
wind
direction
speed
MPH
gust
MPH
rain 1hr
in
rain 24hr
in
rain mn
in
humidity
%
barometer
mb
20260905004627 87 259 6.0 19.0 0.00 0.00 0.00 20 1000.6
20260905004115 87 257 7.0 19.0 0.00 0.00 0.00 19 1000.5
20260905003604 87 244 7.0 21.0 0.00 0.00 0.00 19 1000.6
20260905002505 87 222 7.0 21.0 0.00 0.00 0.00 18 1000.6
20260905001312 88 255 6.0 24.0 0.00 0.00 0.00 18 1000.7
20260905000817 88 277 6.0 24.0 0.00 0.00 0.00 18 1000.6
20260905000321 88 233 7.0 24.0 0.00 0.00 0.00 18 1000.6
20260904235156 88 167 9.0 20.0 0.00 0.00 0.00 18 1000.6
20260904234647 89 258 8.0 20.0 0.00 0.00 0.00 17 1000.6
20260904234137 89 256 7.0 20.0 0.00 0.00 0.00 18 1000.6
20260904232335 89 218 7.0 19.0 0.00 0.00 0.00 16 1000.8
20260904231831 89 269 7.0 21.0 0.00 0.00 0.00 16 1000.7
20260904231316 89 192 7.0 21.0 0.00 0.00 0.00 16 1000.7
20260904230804 89 268 8.0 22.0 0.00 0.00 0.00 16 1000.9
20260904230257 89 263 7.0 22.0 0.00 0.00 0.00 16 1000.8
20260904225754 89 197 8.0 22.0 0.00 0.00 0.00 16 1000.9
20260904225300 89 246 7.0 22.0 0.00 0.00 0.00 15 1000.9
20260904224758 90 262 7.0 20.0 0.00 0.00 0.00 17 1001.0
20260904223648 89 278 7.0 20.0 0.00 0.00 0.00 17 1001.0
20260904223141 89 169 8.0 20.0 0.00 0.00 0.00 16 1001.2
20260904222016 89 257 6.0 18.0 0.00 0.00 0.00 16 1001.1
20260904221459 89 253 8.0 18.0 0.00 0.00 0.00 16 1001.4
20260904221010 89 174 7.0 20.0 0.00 0.00 0.00 16 1001.3
20260904220506 89 270 7.0 20.0 0.00 0.00 0.00 15 1001.3
20260904220003 89 215 9.0 20.0 0.00 0.00 0.00 16 1001.4
20260904215502 89 263 8.0 20.0 0.00 0.00 0.00 16 1001.4
20260904214951 89 289 8.0 20.0 0.00 0.00 0.00 15 1001.5
20260904214449 88 282 8.0 20.0 0.00 0.00 0.00 16 1001.5
20260904213951 88 184 8.0 24.0 0.00 0.00 0.00 16 1001.5
20260904213500 88 269 9.0 24.0 0.00 0.00 0.00 15 1001.7
20260904212942 88 263 8.0 24.0 0.00 0.00 0.00 16 1001.8
20260904211807 88 235 8.0 22.0 0.00 0.00 0.00 15 1001.9
20260904211301 88 161 8.0 22.0 0.00 0.00 0.00 16 1002.0
20260904204926 88 189 7.0 16.0 0.00 0.00 0.00 16 1002.2
20260904203808 87 257 7.0 21.0 0.00 0.00 0.00 15 1002.5
20260904202008 86 257 7.0 21.0 0.00 0.00 0.00 16 1002.6
20260904201510 87 261 7.0 18.0 0.00 0.00 0.00 16 1002.5
20260904201013 86 167 8.0 18.0 0.00 0.00 0.00 18 1002.7
20260904200510 86 289 7.0 18.0 0.00 0.00 0.00 19 1002.8
20260904200013 86 174 6.0 17.0 0.00 0.00 0.00 19 1002.7
20260904195459 86 165 6.0 15.0 0.00 0.00 0.00 18 1002.8
20260904195000 86 258 6.0 18.0 0.00 0.00 0.00 19 1002.9
20260904194500 85 161 9.0 18.0 0.00 0.00 0.00 19 1002.9
20260904193311 85 247 8.0 18.0 0.00 0.00 0.00 17 1003.2
20260904192209 85 179 8.0 23.0 0.00 0.00 0.00 17 1003.1
20260904191713 85 251 8.0 23.0 0.00 0.00 0.00 18 1003.1
20260904191156 85 198 6.0 26.0 0.00 0.00 0.00 20 1003.1
20260904190642 85 239 7.0 26.0 0.00 0.00 0.00 21 1003.2
20260904190149 85 277 7.0 26.0 0.00 0.00 0.00 19 1003.2
20260904185646 84 242 6.0 26.0 0.00 0.00 0.00 20 1003.3
20260904185152 84 242 6.0 18.0 0.00 0.00 0.00 20 1003.3
20260904184646 84 257 7.0 16.0 0.00 0.00 0.00 22 1003.5
20260904184132 84 153 7.0 21.0 0.00 0.00 0.00 21 1003.5
20260904183636 83 234 7.0 21.0 0.00 0.00 0.00 21 1003.6
20260904183138 84 167 5.0 25.0 0.00 0.00 0.00 21 1003.7
20260904182626 83 178 5.0 25.0 0.00 0.00 0.00 23 1003.7
20260904182119 83 166 7.0 25.0 0.00 0.00 0.00 24 1003.8
20260904181619 82 165 8.0 25.0 0.00 0.00 0.00 23 1004.0
20260904181116 83 192 7.0 23.0 0.00 0.00 0.00 24 1003.9
20260904180611 82 160 7.0 23.0 0.00 0.00 0.00 23 1003.9
20260904180111 82 193 7.0 23.0 0.00 0.00 0.00 24 1003.8
20260904175611 82 167 7.0 20.0 0.00 0.00 0.00 24 1003.9
20260904175118 82 263 8.0 20.0 0.00 0.00 0.00 24 1003.9
20260904174623 82 174 8.0 20.0 0.00 0.00 0.00 24 1004.0
20260904172902 81 197 7.0 20.0 0.00 0.00 0.00 25 1004.2
20260904172348 81 154 7.0 20.0 0.00 0.00 0.00 25 1004.2
20260904171832 81 222 7.0 20.0 0.00 0.00 0.00 25 1004.2
20260904171338 81 272 6.0 17.0 0.00 0.00 0.00 25 1004.3
20260904170820 81 170 7.0 17.0 0.00 0.00 0.00 25 1004.2
20260904170308 81 246 7.0 16.0 0.00 0.00 0.00 24 1004.3
20260904165151 80 182 6.0 16.0 0.00 0.00 0.00 25 1004.4
20260904164659 80 194 5.0 18.0 0.00 0.00 0.00 24 1004.4
20260904164153 80 182 6.0 18.0 0.00 0.00 0.00 24 1004.4
20260904163700 80 163 6.0 20.0 0.00 0.00 0.00 25 1004.5
20260904163209 80 175 6.0 20.0 0.00 0.00 0.00 24 1004.6
20260904162706 79 233 6.0 20.0 0.00 0.00 0.00 24 1004.5
20260904162215 79 180 5.0 20.0 0.00 0.00 0.00 24 1004.5
20260904161724 79 185 5.0 17.0 0.00 0.00 0.00 25 1004.6
20260904155922 78 149 5.0 19.0 0.00 0.00 0.00 23 1004.7
20260904155413 78 170 5.0 19.0 0.00 0.00 0.00 24 1004.7
20260904153639 77 227 5.0 15.0 0.00 0.00 0.00 25 1004.7
20260904153127 77 222 5.0 15.0 0.00 0.00 0.00 25 1004.7
20260904152025 76 187 5.0 15.0 0.00 0.00 0.00 25 1004.7
20260904151526 76 163 4.0 14.0 0.00 0.00 0.00 25 1004.7
20260904150352 75 163 5.0 14.0 0.00 0.00 0.00 24 1004.8
20260904145232 75 239 5.0 14.0 0.00 0.00 0.00 23 1004.6
20260904144722 75 184 5.0 14.0 0.00 0.00 0.00 24 1004.6
20260904144222 74 263 5.0 13.0 0.00 0.00 0.00 25 1004.6
20260904143711 74 167 4.0 13.0 0.00 0.00 0.00 24 1004.6
20260904142553 73 256 4.0 13.0 0.00 0.00 0.00 24 1004.4
20260904142042 73 262 4.0 13.0 0.00 0.00 0.00 24 1004.4
20260904141526 73 178 4.0 12.0 0.00 0.00 0.00 25 1004.4
20260904141012 73 276 4.0 12.0 0.00 0.00 0.00 24 1004.5
20260904140505 72 206 3.0 12.0 0.00 0.00 0.00 24 1004.5
20260904135946 72 244 4.0 12.0 0.00 0.00 0.00 24 1004.5
20260904135437 72 265 3.0 12.0 0.00 0.00 0.00 23 1004.4
20260904134929 71 175 3.0 11.0 0.00 0.00 0.00 23 1004.3
20260904134425 71 269 4.0 11.0 0.00 0.00 0.00 23 1004.2
20260904133916 71 207 4.0 12.0 0.00 0.00 0.00 23 1004.2
20260904133418 71 231 4.0 12.0 0.00 0.00 0.00 23 1004.2
20260904132922 71 214 4.0 12.0 0.00 0.00 0.00 22 1004.1
20260904131812 71 167 4.0 13.0 0.00 0.00 0.00 22 1004.0
20260904130059 70 253 4.0 14.0 0.00 0.00 0.00 21 1003.9
20260904125547 71 244 5.0 14.0 0.00 0.00 0.00 21 1003.8
20260904125048 71 211 5.0 12.0 0.00 0.00 0.00 20 1003.7
20260904124536 71 194 6.0 15.0 0.00 0.00 0.00 20 1003.7
20260904124027 71 189 6.0 15.0 0.00 0.00 0.00 20 1003.7
20260904123511 71 256 6.0 15.0 0.00 0.00 0.00 19 1003.6
20260904123005 71 181 5.0 15.0 0.00 0.00 0.00 20 1003.5
20260904122453 71 226 5.0 15.0 0.00 0.00 0.00 20 1003.4
20260904121958 71 161 6.0 15.0 0.00 0.00 0.00 20 1003.5
20260904121449 71 231 5.0 14.0 0.00 0.00 0.00 20 1003.3
20260904120936 71 268 5.0 14.0 0.00 0.00 0.00 20 1003.3
20260904120430 72 241 5.0 14.0 0.00 0.00 0.00 20 1003.3
20260904115924 72 161 5.0 12.0 0.00 0.00 0.00 20 1003.2
20260904114800 72 268 4.0 15.0 0.00 0.00 0.00 19 1003.2
20260904114302 72 186 4.0 15.0 0.00 0.00 0.00 19 1003.2
20260904113800 72 186 4.0 15.0 0.00 0.00 0.00 18 1003.2
20260904113306 72 247 4.0 15.0 0.00 0.00 0.00 18 1003.2
20260904112125 72 263 5.0 15.0 0.00 0.00 0.00 16 1003.2
20260904111617 72 181 5.0 15.0 0.00 0.00 0.00 17 1003.2
20260904111112 72 208 5.0 15.0 0.00 0.00 0.00 16 1003.2
20260904110617 72 224 5.0 15.0 0.00 0.00 0.00 16 1003.3
20260904110113 72 320 5.0 16.0 0.00 0.00 0.00 16 1003.3
20260904105615 73 163 5.0 16.0 0.00 0.00 0.00 16 1003.1
20260904104506 72 181 5.0 16.0 0.00 0.00 0.00 17 1003.1
20260904104005 72 157 4.0 13.0 0.00 0.00 0.00 18 1003.0
20260904103453 72 249 4.0 13.0 0.00 0.00 0.00 18 1003.1
20260904102951 72 225 4.0 12.0 0.00 0.00 0.00 19 1003.0
20260904102455 72 236 4.0 12.0 0.00 0.00 0.00 19 1002.9
20260904102000 72 223 4.0 12.0 0.00 0.00 0.00 20 1002.9
20260904101502 72 171 4.0 11.0 0.00 0.00 0.00 20 1002.8
20260904101002 72 171 4.0 15.0 0.00 0.00 0.00 19 1002.8
20260904100456 72 258 4.0 15.0 0.00 0.00 0.00 19 1002.8
20260904094645 73 178 5.0 19.0 0.00 0.00 0.00 19 1002.7
20260904094134 73 206 4.0 13.0 0.00 0.00 0.00 19 1002.7
20260904093643 73 218 4.0 12.0 0.00 0.00 0.00 19 1002.7
20260904093126 73 166 3.0 14.0 0.00 0.00 0.00 19 1002.6
20260904092616 73 180 4.0 14.0 0.00 0.00 0.00 18 1002.6
20260904092118 73 246 5.0 14.0 0.00 0.00 0.00 18 1002.6
20260904091607 73 263 4.0 14.0 0.00 0.00 0.00 18 1002.6
20260904090440 72 184 4.0 11.0 0.00 0.00 0.00 19 1002.6
20260904085312 72 278 2.0 11.0 0.00 0.00 0.00 20 1002.6
20260904084759 72 178 2.0 9.0 0.00 0.00 0.00 20 1002.6
20260904083634 73 244 3.0 9.0 0.00 0.00 0.00 19 1002.6
20260904083128 73 163 3.0 9.0 0.00 0.00 0.00 19 1002.7
20260904082628 74 225 3.0 19.0 0.00 0.00 0.00 18 1002.5
20260904082131 74 197 4.0 19.0 0.00 0.00 0.00 18 1002.5
20260904080953 74 232 5.0 19.0 0.00 0.00 0.00 16 1002.5
20260904080438 74 230 4.0 16.0 0.00 0.00 0.00 17 1002.5
20260904075927 74 179 4.0 13.0 0.00 0.00 0.00 18 1002.4
20260904075426 73 244 4.0 13.0 0.00 0.00 0.00 18 1002.2
20260904074929 73 200 2.0 7.0 0.00 0.00 0.00 19 1002.1
20260904074433 73 225 2.0 13.0 0.00 0.00 0.00 20 1002.2
20260904073925 73 213 2.0 13.0 0.00 0.00 0.00 20 1002.2
20260904073432 74 162 2.0 13.0 0.00 0.00 0.00 19 1002.3
20260904072917 74 244 3.0 13.0 0.00 0.00 0.00 19 1002.2
20260904072424 74 229 2.0 10.0 0.00 0.00 0.00 20 1002.2
20260904071317 74 228 3.0 9.0 0.00 0.00 0.00 21 1002.0
20260904070801 74 231 2.0 9.0 0.00 0.00 0.00 21 1002.0
20260904070305 74 185 3.0 9.0 0.00 0.00 0.00 21 1002.0
20260904065748 74 192 2.0 9.0 0.00 0.00 0.00 21 1001.9
20260904065241 74 217 2.0 7.0 0.00 0.00 0.00 21 1001.8
20260904064747 75 232 3.0 7.0 0.00 0.00 0.00 21 1001.9
20260904064233 75 256 3.0 10.0 0.00 0.00 0.00 21 1001.8
20260904063730 75 155 4.0 10.0 0.00 0.00 0.00 20 1001.8
20260904062004 75 287 3.0 12.0 0.00 0.00 0.00 20 1001.6
20260904061508 75 256 3.0 12.0 0.00 0.00 0.00 19 1001.5
20260904061012 75 192 3.0 12.0 0.00 0.00 0.00 19 1001.5
20260904060458 75 220 3.0 9.0 0.00 0.00 0.00 19 1001.5
20260904060003 75 251 3.0 8.0 0.00 0.00 0.00 19 1001.5
20260904055505 75 187 3.0 8.0 0.00 0.00 0.00 20 1001.4
20260904054959 75 172 3.0 9.0 0.00 0.00 0.00 20 1001.4
20260904053810 75 185 3.0 11.0 0.00 0.00 0.00 20 1001.4
20260904053305 76 187 4.0 11.0 0.00 0.00 0.00 21 1001.2
20260904052748 76 181 4.0 11.0 0.00 0.00 0.00 21 1001.2
20260904052238 75 256 3.0 11.0 0.00 0.00 0.00 21 1001.2
20260904051724 75 215 2.0 7.0 0.00 0.00 0.00 21 1001.2
20260904051222 75 214 2.0 7.0 0.00 0.00 0.00 21 1001.2
20260904050716 75 255 2.0 7.0 0.00 0.00 0.00 20 1001.2
20260904050215 75 176 2.0 6.0 0.00 0.00 0.00 20 1001.2
20260904045702 75 277 2.0 6.0 0.00 0.00 0.00 20 1001.2
20260904045204 75 193 2.0 6.0 0.00 0.00 0.00 20 1001.3
20260904044651 74 264 2.0 6.0 0.00 0.00 0.00 20 1001.3
20260904043528 73 183 1.0 5.0 0.00 0.00 0.00 21 1001.3
20260904042406 72 227 0.0 4.0 0.00 0.00 0.00 22 1001.3
20260904041229 72 206 0.0 3.0 0.00 0.00 0.00 23 1001.2
20260904040737 72 256 0.0 1.0 0.00 0.00 0.00 23 1001.2
20260904040233 72 256 0.0 0.0 0.00 0.00 0.00 23 1001.1
20260904035731 73 256 0.0 2.0 0.00 0.00 0.00 22 1001.1
20260904035221 73 262 0.0 0.0 0.00 0.00 0.00 22 1001.1
20260904034705 74 262 0.0 0.0 0.00 0.00 0.00 21 1001.0
20260904034209 74 262 0.0 0.0 0.00 0.00 0.00 21 1001.0
20260904033704 75 262 0.0 0.0 0.00 0.00 0.00 20 1001.0
20260904033207 76 262 0.0 0.0 0.00 0.00 0.00 19 1001.1
20260904032656 76 261 0.0 0.0 0.00 0.00 0.00 19 1001.0
20260904032155 76 261 0.0 0.0 0.00 0.00 0.00 18 1001.0
20260904031031 76 256 0.0 2.0 0.00 0.00 0.00 18 1001.0
20260904030513 76 268 0.0 0.0 0.00 0.00 0.00 18 1001.0
20260904030014 77 282 0.0 0.0 0.00 0.00 0.00 18 1001.0
20260904025520 77 282 0.0 0.0 0.00 0.00 0.00 18 1000.9
20260904025030 78 282 0.0 0.0 0.00 0.00 0.00 17 1001.0
20260904024524 78 265 0.0 0.0 0.00 0.00 0.00 17 1000.9
20260904024009 79 261 0.0 3.0 0.00 0.00 0.00 17 1000.9
20260904023450 79 260 0.0 3.0 0.00 0.00 0.00 16 1000.8
20260904022931 80 278 0.0 3.0 0.00 0.00 0.00 16 1000.9
20260904022435 80 282 0.0 3.0 0.00 0.00 0.00 16 1000.8
20260904021933 80 278 0.0 2.0 0.00 0.00 0.00 16 1000.8
20260904020812 81 286 0.0 3.0 0.00 0.00 0.00 15 1000.8
20260904015006 82 257 2.0 8.0 0.00 0.00 0.00 15 1000.9
20260904013209 83 271 4.0 13.0 0.00 0.00 0.00 14 1001.0
20260904012714 84 284 5.0 13.0 0.00 0.00 0.00 14 1000.9
20260904012210 84 242 4.0 13.0 0.00 0.00 0.00 14 1001.0
20260904011704 84 262 3.0 13.0 0.00 0.00 0.00 14 1001.1
20260904011201 84 262 4.0 13.0 0.00 0.00 0.00 14 1001.0
20260904010642 84 257 5.0 14.0 0.00 0.00 0.00 14 1001.1
20260904005538 84 270 4.0 15.0 0.00 0.00 0.00 14 1001.2
20260904005024 84 253 5.0 15.0 0.00 0.00 0.00 14 1001.2